51,2013-07-17 19:28:16,1374089296,55.20787,-10.10259,2,2,2013-07-17 19:27:00,1374089220,19.1,12,15.8,0,4095,55.202,-10.0746,26,48
52,2013-07-17 20:06:12,1374091572,55.18217,-10.16442,2,2,2013-07-17 20:00:00,1374091200,17.91,23,15.8,30,4095,55.202,-10.0746,26,48
53,2013-07-17 21:06:13,1374095173,55.15833,-10.09158,2,2,2013-07-17 21:00:00,1374094800,16.12,22,15.8,30,0,55.1726,-10.0864,58,48
54,2013-07-17 22:06:11,1374098771,55.21303,-10.04073,10,2,2013-07-17 22:00:00,1374098400,15.11,8,15.8,30,60,55.1726,-10.0864,58,48
55,2013-07-17 23:06:12,1374102372,55.16348,-10.02979,3,1,2013-07-17 23:00:00,1374102000,15.09,8,15.8,30,120,55.1726,-10.0864,58,48
56,2013-07-18 00:06:12,1374105972,55.15833,-10.09158,2,6,2013-07-18 00:00:00,1374105600,15.08,7,15.8,30,0,55.1768,-10.0434,34,44
57,2013-07-18 01:06:07,1374109567,55.19253,-10.04073,8,2,2013-07-18 01:00:00,1374109200,15.08,6,15.8,30,60,55.1768,-10.0434,34,44
58,2013-07-18 02:06:09,1374113169,55.1686,-9.96798,2,1,2013-07-18 02:00:00,1374112800,15.07,7,15.8,30,120,55.1768,-10.0434,34,44
59,2013-07-18 03:06:13,1374116773,55.15833,-10.09158,2,4,2013-07-18 03:00:00,1374116400,15.07,9,15.8,30,0,55.166,-10.0418,12,48
60,2013-07-18 04:06:10,1374120370,55.15833,-10.09158,2,8,2013-07-18 04:00:00,1374120000,15.07,7,15.8,30,60,55.166,-10.0418,12,48
61,2013-07-18 05:06:10,1374123970,55.16348,-10.02979,3,3,2013-07-18 05:00:00,1374123600,15.07,7,15.8,30,120,55.166,-10.0418,12,48
62,2013-07-18 06:06:15,1374127575,55.19253,-10.04073,2,0,2013-07-18 06:00:00,1374127200,15.07,7,15.8,30,0,55.1784,-10.065,34,48
63,2013-07-18 07:06:09,1374131169,55.18737,-10.10259,2,1,2013-07-18 07:00:00,1374130800,15.08,7,15.8,30,60,55.1784,-10.065,34,48
64,2013-07-18 08:06:12,1374134772,55.20787,-10.10259,4,1,2013-07-18 08:00:00,1374134400,15.09,6,15.8,30,120,55.1784,-10.065,34,48
65,2013-07-18 09:06:14,1374138374,55.15833,-10.09158,3,29,2013-07-18 09:00:00,1374138000,15.11,7,15.8,30,0,55.1968,-10.0558,32,48
66,2013-07-18 10:06:10,1374141970,55.17282,-12.78757,192,2,2013-07-18 10:00:00,1374141600,15.14,6,15.8,30,60,55.1968,-10.0558,32,48
67,2013-07-18 11:06:18,1374145578,55.19766,-9.97886,2,2,2013-07-18 11:00:00,1374145200,15.17,6,15.8,30,120,55.1968,-10.0558,32,48
68,2013-07-18 12:06:09,1374149169,55.21253,-10.74315,95,2,2013-07-18 12:00:00,1374148800,15.24,6,15.8,30,0,55.2042,-10.0264,32,48
69,2013-07-18 13:06:14,1374152774,55.16348,-10.02979,4,2,2013-07-18 13:00:00,1374152400,15.25,7,15.8,30,60,55.2042,-10.0264,32,48
70,2013-07-18 14:06:10,1374156370,55.23173,-10.17551,65,2,2013-07-18 14:00:00,1374156000,15.3,7,15.8,30,120,55.2042,-10.0264,32,48
71,2013-07-18 15:06:13,1374159973,55.21303,-10.04073,2,3,2013-07-18 15:00:00,1374159600,15.39,7,15.8,30,0,55.198,-10.0002,32,48
72,2013-07-18 16:06:10,1374163570,55.05311,-7.72288,176,3,2013-07-18 16:00:00,1374163200,15.53,6,15.8,30,60,55.198,-10.0002,32,48
73,2013-07-18 17:06:24,1374167184,55.21816,-9.97886,7,2,2013-07-18 17:00:00,1374166800,15.52,7,15.8,30,120,55.198,-10.0002,32,48
74,2013-07-18 18:06:14,1374170774,55.0967,-6.47175,234,2,2013-07-18 18:00:00,1374170400,15.48,6,15.8,30,0,55.2006,-10.0124,32,48
75,2013-07-18 19:06:10,1374174370,55.21816,-9.97886,6,2,2013-07-18 19:00:00,1374174000,15.48,6,15.8,30,60,55.2006,-10.0124,32,48
76,2013-07-18 20:06:11,1374177971,55.24723,-9.98976,12,7,2013-07-18 20:00:00,1374177600,15.5,6,15.8,30,120,55.2006,-10.0124,32,48
77,2013-07-18 21:06:14,1374181574,55.24209,-10.0517,4,5,2013-07-18 21:00:00,1374181200,15.44,6,15.8,30,0,55.2154,-10.0218,12,48
78,2013-07-18 22:06:11,1374185171,55.21303,-10.04073,6,10,2013-07-18 22:00:00,1374184800,15.45,7,15.8,30,60,55.2154,-10.0218,12,48
79,2013-07-18 23:06:09,1374188769,55.24723,-9.98976,3,1,2013-07-18 23:00:00,1374188400,15.4,6,15.8,30,120,55.2154,-10.0218,12,48
80,2013-07-19 00:06:14,1374192374,55.19766,-9.97886,4,1,2013-07-19 00:00:00,1374192000,15.36,7,15.8,30,0,55.2346,-9.99339999999998,32,48
81,2013-07-19 01:06:09,1374195969,55.48648,-5.89963,266,2,2013-07-19 01:00:00,1374195600,15.35,7,15.8,30,60,55.2346,-9.99339999999998,32,48
82,2013-07-19 02:06:11,1374199571,55.21816,-9.97886,6,6,2013-07-19 02:00:00,1374199200,15.31,5,15.8,30,120,55.2346,-9.99339999999998,32,48
83,2013-07-19 03:06:15,1374203175,55.21816,-9.97886,10,0,2013-07-19 03:00:00,1374202800,15.3,7,15.8,30,0,55.2356,-9.96639999999999,12,48
84,2013-07-19 04:06:09,1374206769,55.25234,-9.92779,3,9,2013-07-19 04:00:00,1374206400,15.29,6,15.8,30,60,55.2356,-9.96639999999999,12,48
85,2013-07-19 05:06:10,1374210370,55.24723,-9.98976,4,1,2013-07-19 05:00:00,1374210000,15.27,10,15.8,30,120,55.2356,-9.96639999999999,12,48
86,2013-07-19 06:06:11,1374213971,55.22326,-9.91696,3,1,2013-07-19 06:00:00,1374213600,15.25,7,15.6,30,0,55.233,-9.97539999999998,62,48
87,2013-07-19 07:06:10,1374217570,55.21303,-10.04073,2,0,2013-07-19 07:00:00,1374217200,15.25,6,15.6,30,60,55.233,-9.97539999999998,62,48
88,2013-07-19 08:06:12,1374221172,55.2677,-9.98976,11,2,2013-07-19 08:00:00,1374220800,15.25,8,15.6,30,120,55.233,-9.97539999999998,62,48
89,2013-07-19 09:06:09,1374224769,55.22326,-9.91696,2,1,2013-07-19 09:00:00,1374224400,15.29,7,15.6,30,0,55.2416,-9.98819999999998,50,48
90,2013-07-19 10:06:21,1374228381,55.14867,-14.99616,325,0,2013-07-19 10:00:00,1374228000,15.34,8,15.6,30,60,55.2416,-9.98819999999998,50,48
91,2013-07-19 11:06:13,1374231973,55.21816,-9.97886,5,3,2013-07-19 11:00:00,1374231600,15.4,9,15.6,30,120,55.2416,-9.98819999999998,50,48
92,2013-07-19 12:06:14,1374235574,55.38479,-12.79587,192,2,2013-07-19 12:00:00,1374235200,15.47,7,15.6,30,0,55.2528,-9.97459999999998,62,48
93,2013-07-19 13:06:10,1374239170,55.24723,-9.98976,1,1,2013-07-19 13:00:00,1374238800,15.55,8,15.6,30,60,55.2528,-9.97459999999998,62,48
94,2013-07-19 14:06:10,1374242770,55.25234,-9.92779,3,2,2013-07-19 14:00:00,1374242400,15.65,7,15.6,30,120,55.2528,-9.97459999999998,62,48
95,2013-07-19 15:06:14,1374246374,55.22326,-9.91696,2,7,2013-07-19 15:00:00,1374246000,15.66,8,15.6,30,0,55.2506,-9.9588,32,48
96,2013-07-19 16:06:17,1374249977,55.1985,-9.21438,82,2,2013-07-19 16:00:00,1374249600,15.68,8,15.6,30,60,55.2506,-9.9588,32,48
97,2013-07-19 17:06:11,1374253571,55.24723,-9.98976,2,6,2013-07-19 17:00:00,1374253200,15.68,9,15.6,30,120,55.2506,-9.9588,32,48
98,2013-07-19 18:06:08,1374257168,55.23765,-8.96609,98,2,2013-07-19 18:00:00,1374256800,15.74,8,15.6,30,0,55.2534,-9.97479999999999,80,44
99,2013-07-19 19:06:13,1374260773,55.2677,-9.98976,3,3,2013-07-19 19:00:00,1374260400,15.72,11,15.6,30,60,55.2534,-9.97479999999999,80,44
100,2013-07-19 20:06:10,1374264370,55.21816,-9.97886,13,8,2013-07-19 20:00:00,1374264000,15.7,9,15.6,30,120,55.2534,-9.97479999999999,80,44
101,2013-07-19 21:06:17,1374267977,55.27281,-9.92779,2,2,2013-07-19 21:00:00,1374267600,15.71,10,15.6,30,0,55.2714,-9.97879999999998,32,48
102,2013-07-19 22:06:31,1374271591,55.24723,-9.98976,4,1,2013-07-19 22:00:00,1374271200,15.72,9,15.6,30,60,55.2714,-9.97879999999998,32,48
103,2013-07-19 23:06:12,1374275172,55.24723,-9.98976,10,1,2013-07-19 23:00:00,1374274800,15.74,8,15.6,30,120,55.2714,-9.97879999999998,32,48
104,2013-07-20 00:06:13,1374278773,55.27281,-9.92779,2,1,2013-07-20 00:00:00,1374278400,15.76,10,15.6,30,0,55.2786,-9.95439999999999,80,48
105,2013-07-20 01:06:14,1374282374,55.4015,-7.60299,164,2,2013-07-20 01:00:00,1374282000,15.74,9,15.6,30,60,55.2786,-9.95439999999999,80,48
106,2013-07-20 02:06:10,1374285970,55.25234,-9.92779,3,2,2013-07-20 02:00:00,1374285600,15.72,9,15.6,30,120,55.2786,-9.95439999999999,80,48
107,2013-07-20 03:06:12,1374289572,55.29679,-10.00068,7,5,2013-07-20 03:00:00,1374289200,15.71,7,15.6,30,0,55.2794,-9.92919999999998,32,48
108,2013-07-20 04:06:14,1374293174,55.25741,-9.86581,2,2,2013-07-20 04:00:00,1374292800,15.72,7,15.6,30,60,55.2794,-9.92919999999998,32,48
109,2013-07-20 05:06:12,1374296772,55.30698,-9.8766,6,1,2013-07-20 05:00:00,1374296400,15.7,8,15.6,30,120,55.2794,-9.92919999999998,32,48
110,2013-07-20 06:06:10,1374300370,55.24723,-9.98976,2,2,2013-07-20 06:00:00,1374300000,15.73,6,15.6,30,0,55.2732,-9.93219999999999,32,48
111,2013-07-20 07:06:22,1374303982,55.25741,-9.86581,14,1,2013-07-20 07:00:00,1374303600,15.72,7,15.6,30,60,55.2732,-9.93219999999999,32,48
112,2013-07-20 08:06:13,1374307573,55.27281,-9.92779,2,2,2013-07-20 08:00:00,1374307200,15.75,9,15.6,30,120,55.2732,-9.93219999999999,32,48
113,2013-07-20 09:06:14,1374311174,55.29679,-10.00068,2,20,2013-07-20 09:00:00,1374310800,15.8,8,15.6,30,0,55.2838,-9.95839999999998,56,48
114,2013-07-20 10:06:12,1374314772,55.2677,-9.98976,8,1,2013-07-20 10:00:00,1374314400,15.88,7,15.6,30,60,55.2838,-9.95839999999998,56,48
115,2013-07-20 11:06:10,1374318370,55.29679,-10.00068,1,2,2013-07-20 11:00:00,1374318000,16.23,7,15.6,30,120,55.2838,-9.95839999999998,56,48
116,2013-07-20 12:06:12,1374321972,55.35145,-9.94954,12,2,2013-07-20 12:00:00,1374321600,16.37,8,15.6,30,0,55.2926,-9.94280000000001,62,48
117,2013-07-20 13:06:12,1374325572,55.3019,-9.93865,5,2,2013-07-20 13:00:00,1374325200,16.42,6,15.6,30,60,55.2926,-9.94280000000001,62,48
118,2013-07-20 14:06:12,1374329172,55.48877,-14.38925,10,6,2013-07-20 14:00:00,1374328800,16.65,6,15.6,30,120,55.2926,-9.94280000000001,62,48
119,2013-07-20 15:06:14,1374332774,55.30698,-9.8766,3,2,2013-07-20 15:00:00,1374332400,16.72,7,15.6,30,0,55.2902,-9.91379999999998,32,48
120,2013-07-20 16:06:13,1374336373,55.3764,-11.37182,113,3,2013-07-20 16:00:00,1374336000,16.97,9,15.6,30,60,55.2902,-9.91379999999998,32,48
121,2013-07-20 17:06:17,1374339977,55.3019,-9.93865,2,1,2013-07-20 17:00:00,1374339600,16.95,7,15.6,30,120,55.2902,-9.91379999999998,32,48
122,2013-07-20 18:06:11,1374343571,55.22371,-9.15234,226,1,2013-07-20 18:00:00,1374343200,17.06,8,15.6,30,0,55.2844,-9.91479999999999,32,48
123,2013-07-20 19:06:16,1374347176,55.27788,-9.86581,2,1,2013-07-20 19:00:00,1374346800,17.1,7,15.6,30,60,55.2844,-9.91479999999999,32,48
124,2013-07-20 20:06:13,1374350773,55.24425,-8.45923,118,8,2013-07-20 20:00:00,1374350400,17.07,6,15.6,30,120,55.2844,-9.91479999999999,32,48
125,2013-07-20 21:06:13,1374354373,55.29679,-10.00068,2,5,2013-07-20 21:00:00,1374354000,16.9,7,15.6,30,0,55.2942,-9.9522,10,44
126,2013-07-20 22:06:11,1374357971,55.29679,-10.00068,3,7,2013-07-20 22:00:00,1374357600,16.96,6,15.6,30,60,55.2942,-9.9522,10,44
127,2013-07-20 23:06:12,1374361572,55.27788,-9.86581,2,1,2013-07-20 23:00:00,1374361200,16.92,7,15.6,30,120,55.2942,-9.9522,10,44
128,2013-07-21 00:06:11,1374365171,55.27281,-9.92779,2,8,2013-07-21 00:00:00,1374364800,16.88,7,15.6,30,0,55.3122,-9.91999999999999,32,48
129,2013-07-21 01:06:09,1374368769,55.27281,-9.92779,3,1,2013-07-21 01:00:00,1374368400,16.79,7,15.6,30,60,55.3122,-9.91999999999999,32,48
130,2013-07-21 02:06:09,1374372369,55.30698,-9.8766,2,1,2013-07-21 02:00:00,1374372000,16.55,7,15.6,30,120,55.3122,-9.91999999999999,32,48
131,2013-07-21 03:06:10,1374375970,55.44108,-7.28968,177,2,2013-07-21 03:00:00,1374375600,16.43,6,15.6,30,0,55.3156,-9.87219999999999,10,48
132,2013-07-21 04:06:13,1374379573,55.30698,-9.8766,2,5,2013-07-21 04:00:00,1374379200,16.37,6,15.6,30,60,55.3156,-9.87219999999999,10,48
133,2013-07-21 05:06:10,1374383170,55.31204,-9.81452,3,7,2013-07-21 05:00:00,1374382800,16.32,8,15.6,30,120,55.3156,-9.87219999999999,10,48
134,2013-07-21 06:06:15,1374386775,55.31204,-9.81452,2,0,2013-07-21 06:00:00,1374386400,16.29,8,15.6,30,0,55.3022,-9.8528,82,48
135,2013-07-21 07:06:10,1374390370,55.3019,-9.93865,3,1,2013-07-21 07:00:00,1374390000,16.29,9,15.6,30,60,55.3022,-9.8528,82,48
136,2013-07-21 08:06:10,1374393970,55.27788,-9.86581,4,1,2013-07-21 08:00:00,1374393600,16.39,8,15.6,30,120,55.3022,-9.8528,82,48
137,2013-07-21 09:06:14,1374397574,55.27281,-9.92779,4,12,2013-07-21 09:00:00,1374397200,16.44,6,15.6,30,0,55.3006,-9.89179999999999,64,48
138,2013-07-21 10:06:15,1374401175,55.32743,-9.8766,6,2,2013-07-21 10:00:00,1374400800,16.6,8,15.6,30,60,55.3006,-9.89179999999999,64,48
139,2013-07-21 11:06:10,1374404770,55.30698,-9.8766,2,2,2013-07-21 11:00:00,1374404400,16.7,6,15.6,30,120,55.3006,-9.89179999999999,64,48
140,2013-07-21 12:06:12,1374408372,55.35145,-9.94954,4,8,2013-07-21 12:00:00,1374408000,16.8,6,15.6,30,0,55.3194,-9.9144,32,48
141,2013-07-21 13:06:09,1374411969,55.3019,-9.93865,4,2,2013-07-21 13:00:00,1374411600,16.86,8,15.6,30,60,55.3194,-9.9144,32,48
142,2013-07-21 14:06:11,1374415571,55.58227,-14.37509,292,2,2013-07-21 14:00:00,1374415200,17.05,7,15.6,30,120,55.3194,-9.9144,32,48
143,2013-07-21 15:06:14,1374419174,55.35654,-9.88742,2,4,2013-07-21 15:00:00,1374418800,17.04,9,15.6,30,0,55.3412,-9.87379999999999,32,48
144,2013-07-21 16:06:12,1374422772,55.44207,-11.84307,161,8,2013-07-21 16:00:00,1374422400,16.92,8,15.6,30,60,55.3412,-9.87379999999999,32,48
145,2013-07-21 17:06:11,1374426371,55.3616,-9.82528,9,2,2013-07-21 17:00:00,1374426000,16.79,9,15.6,30,120,55.3412,-9.87379999999999,32,48
146,2013-07-21 18:06:12,1374429972,55.35146,-10.65452,83,3,2013-07-21 18:00:00,1374429600,16.83,10,15.6,30,0,55.333,-9.84139999999999,62,44
147,2013-07-21 19:06:15,1374433575,55.3616,-9.82528,5,2,2013-07-21 19:00:00,1374433200,16.79,10,15.6,30,60,55.333,-9.84139999999999,62,44
148,2013-07-21 20:06:09,1374437169,55.36951,-10.7902,112,2,2013-07-21 20:00:00,1374436800,16.78,8,15.6,30,120,55.333,-9.84139999999999,62,44
149,2013-07-21 21:06:11,1374440771,55.35654,-9.88742,4,2,2013-07-21 21:00:00,1374440400,16.84,8,15.6,30,0,55.3264,-9.87959999999998,32,48
150,2013-07-21 22:06:14,1374444374,55.3019,-9.93865,15,2,2013-07-21 22:00:00,1374444000,16.97,6,15.6,30,60,55.3264,-9.87959999999998,32,48
151,2013-07-21 23:06:09,1374447969,55.35654,-9.88742,3,1,2013-07-21 23:00:00,1374447600,16.8,5,15.6,30,120,55.3264,-9.87959999999998,32,48
152,2013-07-22 00:06:10,1374451570,55.30698,-9.8766,3,7,2013-07-22 00:00:00,1374451200,16.67,6,15.6,30,0,55.3516,-9.91399999999999,62,48
153,2013-07-22 01:06:09,1374455169,55.36508,-10.14685,68,2,2013-07-22 01:00:00,1374454800,16.69,6,15.6,30,60,55.3516,-9.91399999999999,62,48
154,2013-07-22 02:06:10,1374458770,55.35654,-9.88742,5,1,2013-07-22 02:00:00,1374458400,16.65,8,15.6,30,120,55.3516,-9.91399999999999,62,48
155,2013-07-22 03:06:09,1374462369,55.39112,-8.93326,127,9,2013-07-22 03:00:00,1374462000,16.59,7,15.6,30,0,55.3786,-9.86939999999998,10,48
156,2013-07-22 04:06:15,1374465975,55.3616,-9.82528,3,1,2013-07-22 04:00:00,1374465600,16.59,6,15.6,30,60,55.3786,-9.86939999999998,10,48
157,2013-07-22 05:06:16,1374469576,55.40607,-9.89826,8,2,2013-07-22 05:00:00,1374469200,16.29,9,15.6,30,120,55.3786,-9.86939999999998,10,48
158,2013-07-22 06:06:12,1374473172,55.3616,-9.82528,4,1,2013-07-22 06:00:00,1374472800,16.19,8,15.6,30,0,55.3696,-9.81999999999999,50,48
159,2013-07-22 07:06:09,1374476769,55.35654,-9.88742,5,1,2013-07-22 07:00:00,1374476400,16.39,8,15.6,30,60,55.3696,-9.81999999999999,50,48
160,2013-07-22 08:06:12,1374480372,55.41114,-9.83605,7,1,2013-07-22 08:00:00,1374480000,16.51,7,15.6,30,120,55.3696,-9.81999999999999,50,48
161,2013-07-22 09:06:14,1374483974,55.3616,-9.82528,3,1,2013-07-22 09:00:00,1374483600,16.43,7,15.6,30,0,55.3538,-9.83839999999998,80,48
162,2013-07-22 10:06:09,1374487569,55.3616,-9.82528,1,1,2013-07-22 10:00:00,1374487200,16.75,7,15.6,30,60,55.3538,-9.83839999999998,80,48
163,2013-07-22 11:06:10,1374491170,55.32743,-9.8766,7,3,2013-07-22 11:00:00,1374490800,16.78,6,15.6,30,120,55.3538,-9.83839999999998,80,48
164,2013-07-22 12:06:13,1374494773,55.3616,-9.82528,2,4,2013-07-22 12:00:00,1374494400,16.95,6,15.6,30,0,55.3592,-9.89239999999998,32,48
165,2013-07-22 13:06:10,1374498370,55.38057,-9.96044,1,2,2013-07-22 13:00:00,1374498000,17.08,7,15.6,30,60,55.3592,-9.89239999999998,32,48
166,2013-07-22 14:06:11,1374501971,55.38057,-9.96044,3,4,2013-07-22 14:00:00,1374501600,17.02,8,15.6,30,120,55.3592,-9.89239999999998,32,48
167,2013-07-22 15:06:10,1374505570,55.3616,-9.82528,2,4,2013-07-22 15:00:00,1374505200,17.06,5,15.6,30,0,55.3902,-9.87860000000001,80,48
168,2013-07-22 16:06:12,1374509172,55.36663,-9.76311,4,4,2013-07-22 16:00:00,1374508800,16.88,6,15.6,30,60,55.3902,-9.87860000000001,80,48
169,2013-07-22 17:06:11,1374512771,55.38567,-9.89826,2,8,2013-07-22 17:00:00,1374512400,17.01,7,15.6,30,120,55.3902,-9.87860000000001,80,48
170,2013-07-22 18:06:14,1374516374,55.41114,-9.83605,10,2,2013-07-22 18:00:00,1374516000,16.92,8,15.6,30,0,55.3954,-9.82419999999999,64,48
171,2013-07-22 19:06:11,1374519971,55.41114,-9.83605,3,3,2013-07-22 19:00:00,1374519600,16.87,7,15.6,30,60,55.3954,-9.82419999999999,64,48
172,2013-07-22 20:06:36,1374523596,55.51443,-13.09907,230,2,2013-07-22 20:00:00,1374523200,16.78,7,15.6,30,120,55.3954,-9.82419999999999,64,48
173,2013-07-22 21:06:10,1374527170,55.38704,-9.76311,2,3,2013-07-22 21:00:00,1374526800,16.8,7,15.6,35,0,55.3848,-9.82759999999999,32,44
174,2013-07-22 22:06:14,1374530774,55.3616,-9.82528,4,1,2013-07-22 22:00:00,1374530400,16.71,7,15.6,30,60,55.3848,-9.82759999999999,32,44
175,2013-07-22 23:06:12,1374534372,55.35654,-9.88742,7,3,2013-07-22 23:00:00,1374534000,16.8,6,15.6,30,120,55.3848,-9.82759999999999,32,44
176,2013-07-23 00:06:12,1374537972,55.35654,-9.88742,4,4,2013-07-23 00:00:00,1374537600,16.73,8,15.6,30,0,55.3892,-9.8646,32,48
177,2013-07-23 01:06:15,1374541575,55.28548,-11.7914,143,1,2013-07-23 01:00:00,1374541200,16.53,8,15.6,30,60,55.3892,-9.8646,32,48
178,2013-07-23 02:06:14,1374545174,55.44029,-9.84685,3,1,2013-07-23 02:00:00,1374544800,16.51,7,15.6,30,120,55.3892,-9.8646,32,48
179,2013-07-23 03:06:12,1374548772,55.47453,-8.89042,100,3,2013-07-23 03:00:00,1374548400,16.56,7,15.6,30,0,55.4114,-9.85499999999999,8,48
180,2013-07-23 04:06:12,1374552372,55.44029,-9.84685,4,1,2013-07-23 04:00:00,1374552000,16.59,5,15.6,30,60,55.4114,-9.85499999999999,8,48
181,2013-07-23 05:06:23,1374555983,55.46331,-8.6308,99,1,2013-07-23 05:00:00,1374555600,16.61,6,15.6,30,120,55.4114,-9.85499999999999,8,48
182,2013-07-23 06:06:11,1374559571,55.41114,-9.83605,2,5,2013-07-23 06:00:00,1374559200,16.62,5,15.6,30,0,55.4168,-9.80619999999999,32,48
183,2013-07-23 07:06:10,1374563170,55.52637,-7.69096,171,1,2013-07-23 07:00:00,1374562800,16.67,5,15.6,30,60,55.4168,-9.80619999999999,32,48
184,2013-07-23 08:06:10,1374566770,55.41618,-9.77382,1,2,2013-07-23 08:00:00,1374566400,16.7,6,15.6,30,120,55.4168,-9.80619999999999,32,48
185,2013-07-23 09:06:12,1374570372,55.63054,-5.60306,274,1,2013-07-23 09:00:00,1374570000,16.57,6,15.6,30,0,55.4098,-9.80119999999999,32,48
186,2013-07-23 10:06:12,1374573972,55.3616,-9.82528,5,1,2013-07-23 10:00:00,1374573600,16.56,6,15.6,30,60,55.4098,-9.80119999999999,32,48
187,2013-07-23 11:06:10,1374577570,55.40607,-9.89826,2,20,2013-07-23 11:00:00,1374577200,16.69,6,15.6,30,120,55.4098,-9.80119999999999,32,48
188,2013-07-23 12:06:14,1374581174,55.40607,-9.89826,2,3,2013-07-23 12:00:00,1374580800,16.8,7,15.6,30,0,55.3986,-9.83619999999999,32,48
189,2013-07-23 13:06:15,1374584775,55.44029,-9.84685,8,2,2013-07-23 13:00:00,1374584400,16.89,7,15.6,30,60,55.3986,-9.83619999999999,32,48
190,2013-07-23 14:06:10,1374588370,55.3616,-9.82528,3,2,2013-07-23 14:00:00,1374588000,16.89,7,15.6,30,120,55.3986,-9.83619999999999,32,48
191,2013-07-23 15:06:11,1374591971,55.40607,-9.89826,3,4,2013-07-23 15:00:00,1374591600,16.79,5,15.6,30,0,55.4164,-9.8588,32,48
192,2013-07-23 16:06:10,1374595570,55.40607,-9.89826,3,5,2013-07-23 16:00:00,1374595200,16.83,6,15.6,30,60,55.4164,-9.8588,32,48
193,2013-07-23 17:06:12,1374599172,55.44029,-9.84685,2,8,2013-07-23 17:00:00,1374598800,16.97,6,15.6,30,120,55.4164,-9.8588,32,48
194,2013-07-23 18:06:15,1374602775,55.65017,-13.34244,237,11,2013-07-23 18:00:00,1374602400,16.78,7,15.6,30,0,55.4298,-9.81619999999998,32,48
195,2013-07-23 19:06:13,1374606373,55.41618,-9.77382,2,2,2013-07-23 19:00:00,1374606000,16.73,5,15.6,30,60,55.4298,-9.81619999999998,32,48
196,2013-07-23 20:06:10,1374609970,55.5875,-12.60453,191,10,2013-07-23 20:00:00,1374609600,16.76,5,15.6,30,120,55.4298,-9.81619999999998,32,48
197,2013-07-23 21:06:12,1374613572,55.41114,-9.83605,1,10,2013-07-23 21:00:00,1374613200,16.57,5,15.6,30,0,55.426,-9.79939999999999,32,48
198,2013-07-23 22:06:13,1374617173,55.54119,-12.26747,176,8,2013-07-23 22:00:00,1374616800,16.46,7,15.6,30,60,55.426,-9.79939999999999,32,48
199,2013-07-23 23:06:10,1374620770,55.41618,-9.77382,2,9,2013-07-23 23:00:00,1374620400,16.49,10,15.6,30,120,55.426,-9.79939999999999,32,48
200,2013-07-24 00:06:13,1374624373,55.3616,-9.82528,2,1,2013-07-24 00:00:00,1374624000,16.52,11,15.6,30,0,55.4118,-9.82059999999998,62,44
201,2013-07-24 01:06:15,1374627975,55.40607,-9.89826,3,1,2013-07-24 01:00:00,1374627600,16.63,9,15.6,30,60,55.4118,-9.82059999999998,62,44
202,2013-07-24 02:06:12,1374631572,55.41114,-9.83605,2,4,2013-07-24 02:00:00,1374631200,16.61,9,15.6,30,120,55.4118,-9.82059999999998,62,44
203,2013-07-24 03:06:14,1374635174,55.36467,-11.49552,126,4,2013-07-24 03:00:00,1374634800,16.41,7,15.6,30,0,55.421,-9.8518,32,48
204,2013-07-24 04:06:12,1374638772,55.40607,-9.89826,2,4,2013-07-24 04:00:00,1374638400,16.46,9,15.6,30,60,55.421,-9.8518,32,48
205,2013-07-24 05:06:10,1374642370,55.41618,-9.77382,3,7,2013-07-24 05:00:00,1374642000,16.34,6,15.6,30,120,55.421,-9.8518,32,48
206,2013-07-24 06:06:12,1374645972,55.44534,-9.78456,2,1,2013-07-24 06:00:00,1374645600,16.3,6,15.6,30,0,55.4394,-9.82419999999999,52,44
207,2013-07-24 07:06:12,1374649572,55.51443,-8.32718,115,1,2013-07-24 07:00:00,1374649200,16.43,6,15.6,30,60,55.4394,-9.82419999999999,52,44
208,2013-07-24 08:06:14,1374653174,55.44029,-9.84685,3,1,2013-07-24 08:00:00,1374652800,16.4,7,15.6,30,120,55.4394,-9.82419999999999,52,44
209,2013-07-24 09:06:14,1374656774,55.41114,-9.83605,12,6,2013-07-24 09:00:00,1374656400,16.34,8,15.6,30,0,55.4352,-9.79319999999998,32,48
210,2013-07-24 10:06:11,1374660371,55.44534,-9.78456,4,1,2013-07-24 10:00:00,1374660000,16.31,9,15.6,30,60,55.4352,-9.79319999999998,32,48
211,2013-07-24 11:06:13,1374663973,55.41114,-9.83605,4,7,2013-07-24 11:00:00,1374663600,16.31,10,15.6,30,120,55.4352,-9.79319999999998,32,48
212,2013-07-24 12:06:14,1374667574,55.44029,-9.84685,4,3,2013-07-24 12:00:00,1374667200,16.35,11,15.6,30,0,55.4148,-9.8184,122,44
213,2013-07-24 13:06:22,1374671182,55.41114,-9.83605,6,3,2013-07-24 13:00:00,1374670800,16.34,13,15.6,30,60,55.4148,-9.8184,122,44
214,2013-07-24 14:06:07,1374674767,55.41114,-9.83605,2,3,2013-07-24 14:00:00,1374674400,16.35,10,15.6,30,120,55.4148,-9.8184,122,44
215,2013-07-24 15:06:08,1374678368,55.43522,-9.90912,2,4,2013-07-24 15:00:00,1374678000,16.31,8,15.6,30,0,55.4226,-9.85559999999998,34,48
216,2013-07-24 16:06:08,1374681968,55.40607,-9.89826,12,2,2013-07-24 16:00:00,1374681600,16.23,11,15.6,30,60,55.4226,-9.85559999999998,34,48
217,2013-07-24 17:06:15,1374685575,55.41618,-9.77382,10,4,2013-07-24 17:00:00,1374685200,16.19,9,15.6,30,120,55.4226,-9.85559999999998,34,48
218,2013-07-24 18:06:08,1374689168,55.44534,-9.78456,3,2,2013-07-24 18:00:00,1374688800,16.16,8,15.6,30,0,55.4492,-9.83339999999998,58,36
219,2013-07-24 19:06:08,1374692768,55.44029,-9.84685,2,4,2013-07-24 19:00:00,1374692400,16.29,9,15.6,30,60,55.4492,-9.83339999999998,58,36
220,2013-07-24 20:06:11,1374696371,55.49488,-9.79531,10,2,2013-07-24 20:00:00,1374696000,16.24,6,15.6,30,120,55.4492,-9.83339999999998,58,36
221,2013-07-24 21:06:09,1374699969,55.49488,-9.79531,5,3,2013-07-24 21:00:00,1374699600,16.25,7,15.6,30,0,55.4562,-9.78440000000001,58,44
222,2013-07-24 22:06:09,1374703569,55.41114,-9.83605,2,2,2013-07-24 22:00:00,1374703200,16.2,8,15.6,30,60,55.4562,-9.78440000000001,58,44
223,2013-07-24 23:06:09,1374707169,55.46571,-9.78456,3,1,2013-07-24 23:00:00,1374706800,16.22,7,15.6,30,120,55.4562,-9.78440000000001,58,44
224,2013-07-25 00:06:08,1374710768,55.41618,-9.77382,3,1,2013-07-25 00:00:00,1374710400,16.1,9,15.6,30,0,55.4336,-9.7988,64,48
225,2013-07-25 01:06:09,1374714369,55.34978,-14.35787,296,1,2013-07-25 01:00:00,1374714000,16.1,8,15.6,30,60,55.4336,-9.7988,64,48
226,2013-07-25 02:06:08,1374717968,55.40607,-9.89826,2,1,2013-07-25 02:00:00,1374717600,16.11,8,15.6,30,120,55.4336,-9.7988,64,48